Location: Unspecified
(0.0000°N, 0.0000°E)
Time: 16:31:18
(UTC+00:00)

JUGNU - Pass Details

Date: 08 December 2017
Orbit: 837 x 864 km, 20.0° (Epoch: 19 July)

Event Time Altitude Azimuth Distance (km) Brightness Sun altitude
Rises 19:06:17 0° 235° (SW) 3,394 ? -17.0°
Reaches altitude 10° 19:11:38 10° 196° (SSW) 2,451 ? -18.3°
Maximum altitude 19:12:36 10° 186° (S) 2,422 ? -18.5°
Drops below altitude 10° 19:13:35 10° 176° (S) 2,449 ? -18.7°
Sets 19:18:55 0° 136° (SE) 3,377 ? -19.9°
